Regional Weather Roundup
Issued by NWS

Home | Current Version | Previous Version | Text Only | Print | Product List | Glossary On
Versions: 1 2 3 4 5 6 7 8 9 10 11 12 13 14 15 16 17 18 19 20 21 22 23 24 25 26 27
000
ASUS45 KBOI 231210
RWRID
WEATHER ROUNDUP FOR IDAHO
NATIONAL WEATHER SERVICE BOISE ID
600 AM MDT WED APR 23 2014

NOTE: "FAIR" INDICATES FEW OR NO CLOUDS BELOW 12000 FEET
WITH NO SIGNIFICANT WEATHER AND/OR OBSTRUCTIONS TO VISIBILITY

IDZ012-014-231300-
SOUTHWEST IDAHO


CITY           SKY/WX    TMP DP  RH WIND       PRES   REMARKS
BOISE          MOCLDY    34  27  75 SE3       29.98R
CALDWELL       CLEAR     32  21  64 E3        30.01R
MOUNTAIN HOME  CLEAR     33  30  89 W8        29.97R WCI  26
$$

IDZ016-017-231300-
SOUTHCENTRAL IDAHO


CITY           SKY/WX    TMP DP  RH WIND       PRES   REMARKS
BURLEY         CLEAR     35  26  69 W20G25    29.91R WCI  24
JEROME         CLEAR     32  27  81 SW10      29.94R WCI  24
TWIN FALLS     CLEAR     35  25  66 SW14      29.94R WCI  26
$$

IDZ019>023-231300-
SOUTHEAST IDAHO


CITY           SKY/WX    TMP DP  RH WIND       PRES   REMARKS
IDAHO FALLS    CLOUDY    34  29  82 SW21G26   29.83R WCI  22
POCATELLO      CLEAR     34  27  75 SW23      29.88R WCI  22
REXBURG        FLURRIES  32  30  92 SW15G24   29.81R WCI  22
$$

IDZ006-010-011-018-031-032-231300-
CENTRAL IDAHO MOUNTAINS


CITY           SKY/WX    TMP DP  RH WIND       PRES   REMARKS
MCCALL         CLEAR     21  18  88 CALM      29.89S
HAILEY         CLEAR     32  12  43 N6        29.86R WCI  26
STANLEY          N/A     18  14  84 CALM      29.88R
SALMON         MOCLDY    37  23  56 CALM      29.85R
CHALLIS        PTCLDY    30  18  60 SW3       29.87R
$$

IDZ002-004-006-007-026-231300-
NORTHERN IDAHO


CITY           SKY/WX    TMP DP  RH WIND       PRES   REMARKS
LEWISTON       CLOUDY    42  28  57 CALM      29.89F
LOWELL         NOT AVBL
COEUR D`ALENE  CLOUDY    36  32  87 S6        29.86F WCI  31
MULLAN PASS    CLOUDY    24  23  96 VRB7G22   29.75F WCI  16
$$



USA.gov is the U.S. government's official web portal to all federal, state and local government web resources and services.